Weather History for Gwinn, MI

Change the Weather History Date:

Saturday, April 13, 2013

  Actual Average (KESC) Record (KESC)
Temperature  
Mean Temperature 25 °F -  
Max Temperature 32 °F 45 °F 60 °F (2005)
Min Temperature 18 °F 31 °F 17 °F (1975)
Degree Days  
Heating Degree Days 40    
Moisture  
Dew Point 23 °F    
Average Humidity 87    
Maximum Humidity 100    
Minimum Humidity 64    
Precipitation  
Precipitation 0.00 in - - ()
Sea Level Pressure  
Sea Level Pressure 29.72 in    
Wind  
Wind Speed 3 mph (NNW)    
Max Wind Speed 20 mph    
Max Gust Speed 16 mph    
Visibility 6 miles    
Events Fog , Snow    
Averages and records for this station are not official NWS values.
T = Trace of Precipitation, MM = Missing Value Source: NWS Daily Summary

Daily Weather History Graph

Daily Weather History Graph

Search for Another Location

Airport:

Trip Planner

Search our weather history database for the weather conditions in past years. The results will help you decide how hot, cold, wet, or windy it might be!

Date:

Astronomy

Apr. 13, 2013 Rise Set
Actual Time 7:06 AM EDT 8:34 PM EDT
Civil Twilight 6:34 AM EDT 9:06 PM EDT
Nautical Twilight 5:56 AM EDT 9:44 PM EDT
Astronomical Twilight 5:16 AM EDT 10:25 PM EDT
Moon 8:48 AM EDT (4/13) No Moon Set
Length of Visible Light 14h 31m
Length of Day
13h 28m
Waxing Crescent, 10% of the Moon is Illuminated
Apr 13
Waxing Crescent
Apr 18
First Quarter
Apr 25
Full
May 2
Last Quarter
May 9
New

Hourly Weather History & Observations

Time (EDT) Temp. Windchill Dew Point Humidity Pressure Visibility Wind Dir Wind Speed Gust Speed Precip Events Conditions
12:16 AM 22.8 °F - 21.6 °F 95% 29.68 in 1.0 mi Calm Calm - N/A   Overcast
12:37 AM 23.0 °F - 21.9 °F 96% 29.68 in 1.2 mi Calm Calm - N/A Snow Light Snow
12:56 AM 23.9 °F - 23.0 °F 96% 29.67 in 1.8 mi Calm Calm - N/A Snow Light Snow
1:17 AM 20.8 °F - 19.4 °F 94% 29.67 in 0.2 mi Calm Calm - N/A Fog Light Freezing Fog
1:36 AM 20.1 °F - 18.7 °F 94% 29.67 in 0.2 mi Calm Calm - N/A Fog Light Freezing Fog
1:57 AM 19.0 °F - 17.4 °F 93% 29.68 in 0.2 mi Calm Calm - N/A Fog Light Freezing Fog
2:16 AM 18.9 °F 13.7 °F 17.1 °F 93% 29.68 in 0.5 mi WNW 3.5 mph - N/A Fog Light Freezing Fog
2:37 AM 23.9 °F - 22.8 °F 96% 29.68 in 0.2 mi Calm Calm - N/A Fog Light Freezing Fog
2:56 AM 23.5 °F - 22.3 °F 95% 29.67 in 0.2 mi Calm Calm - N/A Fog Light Freezing Fog
3:17 AM 22.6 °F - 21.4 °F 95% 29.67 in 0.8 mi Calm Calm - N/A   Overcast
3:37 AM 21.9 °F - 20.3 °F 93% 29.67 in 1.0 mi Calm Calm - N/A   Overcast
3:56 AM 21.6 °F - 20.1 °F 94% 29.67 in 0.5 mi Calm Calm - N/A Fog Light Freezing Fog
4:17 AM 20.3 °F - 18.7 °F 93% 29.66 in 0.5 mi Calm Calm - N/A Fog Light Freezing Fog
4:36 AM 21.7 °F - 20.3 °F 94% 29.66 in 10.0 mi Calm Calm - N/A   Overcast
4:57 AM 22.1 °F - 20.7 °F 94% 29.66 in 10.0 mi Calm Calm - N/A   Overcast
5:17 AM 21.9 °F - 20.5 °F 94% 29.65 in 10.0 mi Calm Calm - N/A   Overcast
5:36 AM 21.9 °F - 20.3 °F 93% 29.66 in 10.0 mi Calm Calm - N/A   Overcast
5:57 AM 21.4 °F - 19.8 °F 93% 29.66 in 10.0 mi Calm Calm - N/A   Overcast
6:55 AM 21.2 °F - 21.2 °F 100% 29.65 in 7.0 mi Calm Calm - N/A Snow Light Snow
7:50 AM 23.0 °F - 23.0 °F 100% 29.67 in 3.0 mi Calm Calm - N/A Snow Light Snow
8:55 AM 24.8 °F 20.5 °F 24.8 °F 100% 29.67 in 2.0 mi WNW 3.5 mph - N/A Snow Light Snow
9:50 AM 26.6 °F 19.1 °F 26.6 °F 100% 29.66 in 5.0 mi WNW 6.9 mph - N/A Snow Light Snow
10:50 AM 28.4 °F 21.2 °F 26.6 °F 93% 29.67 in 4.0 mi WNW 6.9 mph - N/A Snow Light Snow
11:16 AM 30.2 °F 21.3 °F 26.6 °F 86% 29.67 in 4.0 mi NW 10.4 mph - N/A Snow Light Snow
11:50 AM 30.2 °F 21.9 °F 26.6 °F 86% 29.67 in 5.0 mi NW 9.2 mph - N/A   Haze
12:27 PM 32.0 °F 23.0 °F 26.6 °F 80% 29.68 in 2.0 mi NNW 11.5 mph 16.1 mph N/A Snow Light Snow
12:50 PM 32.0 °F 20.1 °F 26.6 °F 80% 29.69 in 2.5 mi North 19.6 mph - N/A Snow Light Snow
1:50 PM 32.0 °F 21.6 °F 26.6 °F 80% 29.69 in 5.0 mi NNE 15.0 mph - N/A Snow Light Snow
2:50 PM 32.0 °F 20.1 °F 26.6 °F 80% 29.72 in 5.0 mi NNE 19.6 mph - N/A   Haze
3:50 PM 32.0 °F 20.8 °F 24.8 °F 75% 29.74 in 7.0 mi North 17.3 mph - N/A   Overcast
4:50 PM 30.2 °F 20.2 °F 24.8 °F 80% 29.75 in 10.0 mi North 12.7 mph - N/A   Overcast
5:55 PM 30.2 °F 19.8 °F 24.8 °F 80% 29.78 in 10.0 mi North 13.8 mph - N/A   Overcast
6:50 PM 30.2 °F 22.6 °F 24.8 °F 80% 29.80 in 10.0 mi North 8.1 mph - N/A   Overcast
7:50 PM 32.0 °F 23.6 °F 21.2 °F 64% 29.82 in 10.0 mi NW 10.4 mph - N/A   Mostly Cloudy
8:50 PM 30.2 °F 21.3 °F 23.0 °F 75% 29.83 in 10.0 mi NNW 10.4 mph - N/A   Mostly Cloudy
9:50 PM 30.2 °F 21.3 °F 23.0 °F 75% 29.86 in 10.0 mi NNW 10.4 mph - N/A   Overcast
10:17 PM 29.3 °F 18.6 °F 21.7 °F 73% 29.87 in 10.0 mi NNW 13.8 mph - N/A   Overcast
10:36 PM 28.8 °F 19.5 °F 21.9 °F 76% 29.87 in 10.0 mi NNW 10.4 mph - N/A   Overcast
10:57 PM 28.4 °F 21.2 °F 21.9 °F 77% 29.88 in 10.0 mi NW 6.9 mph - N/A   Overcast
11:17 PM 28.4 °F 21.2 °F 22.1 °F 77% 29.88 in 10.0 mi WNW 6.9 mph - N/A   Overcast
11:36 PM 28.4 °F 22.2 °F 22.1 °F 77% 29.88 in 10.0 mi WNW 5.8 mph - N/A   Overcast
11:57 PM 28.4 °F - 22.5 °F 78% 29.89 in 10.0 mi Calm Calm - N/A   Overcast